Orbital Elements at Epoch 2459200.5 (2020-Dec-17.0) TDB
Reference: JPL 17 (heliocentric ecliptic J2000)
Element | Value | Uncertainty (1-sigma) | Units |
e | .1360950453478084 | 4.6941e-08 | |
a | 2.57747161469691 | 1.2446e-08 | au |
q | 2.226690498412045 | 1.2121e-07 | au |
i | 11.07342411615904 | 4.2048e-06 | deg |
node | 49.85865667020094 | 2.7621e-05 | deg |
peri | 52.59596803008329 | 3.1573e-05 | deg |
M | 350.3940949462719 | 1.5805e-05 | deg |
tp | 2459240.829705673634 (2021-Jan-26.32970567) | 6.6424e-05 | TDB |
period | 1511.434264788334 4.14 | 1.0947e-05 2.997e-08 | d yr |
n | .2381843579882156 | 1.7251e-09 | deg/d |
Q | 2.928252730981776 | 1.4139e-08 | au |
|
| | Orbit Determination Parameters
Additional Information
|